This is the latest recevied weather packets stored in our database for station/object W8BS. If no packets are shown the sender has not sent any weather packets the latest 10 day(s).
| Time | Temp. | Humidity | Pressure | Rain* | Wind** | Luminosity | Snow |
|---|---|---|---|---|---|---|---|
| 1778079478 | 13.89° C | 99% | 1008.5 hPa | 1.78 mm | - | 86 W/m² | - |
| 1778079174 | 13.89° C | 99% | 1008.4 hPa | 1.78 mm | - | 58 W/m² | - |
| 1778078872 | 13.89° C | 99% | 1008.5 hPa | 1.78 mm | - | 56 W/m² | - |
| 1778078568 | 13.89° C | 99% | 1008.5 hPa | 1.78 mm | - | 65 W/m² | - |
| 1778078266 | 13.89° C | 99% | 1008.4 hPa | 1.27 mm | - | 94 W/m² | - |
| 1778077963 | 13.89° C | 99% | 1008.3 hPa | 1.78 mm | - | 95 W/m² | - |
| 1778077662 | 13.89° C | 99% | 1008.4 hPa | 1.78 mm | - | 78 W/m² | - |
| 1778077359 | 13.89° C | 99% | 1008.2 hPa | 0 mm | - | 68 W/m² | - |
| 1778077057 | 13.89° C | 99% | 1008 hPa | 1.27 mm | - | 57 W/m² | - |
| 1778076755 | 13.89° C | 99% | 1007.7 hPa | 0 mm | - | 80 W/m² | - |
| 1778076453 | 13.89° C | 99% | 1007.9 hPa | 1.78 mm | - | 105 W/m² | - |
| 1778076149 | 13.89° C | 99% | 1008 hPa | 1.27 mm | - | 101 W/m² | - |
| 1778075846 | 13.89° C | 99% | 1008.2 hPa | 1.27 mm | - | 59 W/m² | - |
| 1778075542 | 13.89° C | 99% | 1008.3 hPa | 0 mm | - | 62 W/m² | - |
| 1778075240 | 13.89° C | 99% | 1007.9 hPa | 0 mm | - | 58 W/m² | - |
| 1778074936 | 13.89° C | 99% | 1008.2 hPa | 0 mm | - | 60 W/m² | - |
| 1778074633 | 13.89° C | 99% | 1008.1 hPa | 0 mm | - | 49 W/m² | - |
| 1778074329 | 13.89° C | 99% | 1008.2 hPa | 0 mm | - | 46 W/m² | - |
| 1778074027 | 13.89° C | 99% | 1008.1 hPa | 0 mm | - | 52 W/m² | - |
| 1778073724 | 13.89° C | 99% | 1007.9 hPa | 1.78 mm | - | 77 W/m² | - |
| 1778073421 | 13.89° C | 99% | 1008.1 hPa | 1.78 mm | - | 39 W/m² | - |
| 1778073117 | 13.33° C | 99% | 1008.1 hPa | 0 mm | - | 49 W/m² | - |
| 1778072814 | 13.33° C | 99% | 1007.9 hPa | 0 mm | - | 35 W/m² | - |
| 1778072512 | 13.33° C | 99% | 1008.2 hPa | 0 mm | - | 31 W/m² | - |
| 1778072210 | 13.33° C | 99% | 1007.8 hPa | 0 mm | - | 37 W/m² | - |
* Rain latest hour (hover to see other rain measurements)
** Current wind speed in m/s (hover to see current wind gust speed)